[[{"header":{"parameterUnit":"m.s-1","parameterCategory":1,"la1":30.2991,"la2":30.254,"lo1":-89.0895,"lo2":-89.0444,"dy":0.0017,"dx":0.0017,"nx":28,"ny":28,"refTime":"2024-03-02T09:00:00:Z","depth":0,"parameterNumber":2,"parameterNumberName":"U-component_of_WINDS"},"data":[0,0,0,0,0,0,0,0,0,0,0,0,0,0,0,0,0,0,0,0,0,0,0,0,0,0,0,0,0,0,0,0,0,0,0,0,0,0,0,0,0,0,0,0,0,0,0,0,0,0,0,0,0,0,0,0,0,0,-1.2404,-1.2403,0,-1.231,-1.2309,-1.2308,-1.2221,-1.222,-1.2219,-1.2218,-1.2121,-1.2119,-1.2118,0,0,0,0,0,0,0,0,0,0,0,0,0,-1.2507,-1.2506,-1.2404,-1.2403,-1.2401,-1.231,-1.2309,-1.2308,-1.2221,-1.222,-1.2219,-1.2218,-1.2121,-1.212,-1.2118,0,0,0,0,0,0,0,0,0,0,0,0,0,-1.2443,-1.2505,-1.2404,-1.2348,-1.2342,-1.231,-1.2309,-1.2307,-1.2222,-1.222,-1.2219,-1.2217,-1.2122,-1.212,-1.2117,-1.2134,0,0,-1.211,-1.2109,0,0,0,0,0,0,0,0,-1.2447,-1.2439,-1.2357,-1.2351,-1.2345,-1.2276,-1.231,-1.2249,-1.2222,-1.2267,-1.2218,-1.2216,-1.2174,-1.2167,-1.2153,-1.213,-1.2125,-1.211,-1.2108,-1.2107,-1.2107,0,0,0,0,0,0,0,-1.2451,-1.2443,-1.2367,-1.2356,-1.2348,-1.2327,-1.2316,-1.2298,-1.223,-1.2263,-1.2257,-1.2247,-1.217,-1.2155,-1.215,-1.2124,-1.211,-1.2108,-1.2106,-1.2105,-1.211,-1.2112,0,0,0,0,0,0,-1.2465,-1.2447,-1.237,-1.2364,-1.2393,-1.2326,-1.2314,-1.2299,-1.223,-1.2218,-1.2248,-1.2243,-1.216,-1.2153,-1.2146,-1.2161,-1.2107,-1.2105,-1.2104,-1.2109,-1.211,-1.2112,0,0,0,0,0,0,-1.2467,-1.2458,-1.2373,-1.2404,-1.2391,-1.2326,-1.231,-1.2298,-1.2284,-1.2219,-1.2207,-1.2246,-1.2159,-1.2149,-1.2138,-1.2157,-1.2104,-1.2102,-1.2107,-1.2109,-1.2111,-1.2192,0,0,0,0,0,0,-1.247,-1.246,-1.2466,-1.2404,-1.239,-1.2367,-1.2312,-1.2298,-1.228,-1.2272,-1.2213,-1.2202,-1.2157,-1.2142,-1.2136,-1.2152,-1.21,-1.2105,-1.2108,-1.2111,-1.2188,-1.2197,-1.2205,0,0,0,0,0,-1.2474,-1.2492,-1.2467,-1.2458,-1.2396,-1.2369,-1.236,-1.2308,-1.2282,-1.2287,-1.2246,-1.2204,-1.2156,-1.2142,-1.2133,-1.215,-1.2103,-1.2107,-1.211,-1.2184,-1.2195,-1.2205,0,0,0,0,0,0,-1.2556,-1.2483,-1.2454,-1.2452,-1.2417,-1.2354,-1.2359,-1.2322,-1.2293,-1.2287,-1.2223,-1.2211,-1.2207,-1.2177,-1.2162,-1.2163,-1.2124,-1.2126,-1.2182,-1.2193,-1.2201,-1.2209,-1.2098,0,0,0,0,0,-1.2575,-1.2559,-1.2495,-1.25,-1.2484,-1.2425,-1.2411,-1.2374,-1.2335,-1.232,-1.2277,-1.2241,-1.2217,-1.2203,-1.2178,-1.2183,-1.2169,-1.219,-1.2199,-1.2207,-1.2209,-1.221,-1.2219,-1.2124,-1.2124,-1.2124,0,0,-1.2611,-1.2569,-1.2563,-1.2515,-1.2484,-1.2469,-1.2413,-1.2399,-1.2387,-1.2317,-1.2304,-1.2272,-1.2227,-1.2224,-1.222,-1.2199,-1.2233,-1.2211,-1.2218,-1.2216,-1.2215,-1.2224,-1.2232,-1.2126,-1.2126,-1.2125,0,0,-1.2671,-1.2637,-1.2638,-1.2608,-1.2561,-1.2522,-1.2522,-1.2465,-1.2441,-1.2427,-1.2374,-1.2359,-1.232,-1.229,-1.227,-1.232,-1.228,-1.2313,-1.2359,-1.2361,-1.2368,-1.2374,-1.2392,-1.2399,-1.2316,-1.2316,-1.2316,0,-1.2722,-1.2698,-1.2642,-1.2632,-1.2613,-1.2549,-1.2549,-1.2523,-1.247,-1.2458,-1.2435,-1.2386,-1.2351,-1.234,-1.2353,-1.2338,-1.2336,-1.2319,-1.2371,-1.2377,-1.2382,-1.2399,-1.2406,-1.232,-1.232,-1.2319,-1.2319,0,-1.2764,-1.2748,-1.2753,-1.2705,-1.2687,-1.2682,-1.2625,-1.2613,-1.2577,-1.2541,-1.2527,-1.2484,-1.2449,-1.2443,-1.2408,-1.2428,-1.2416,-1.2384,-1.2343,-1.2397,-1.2411,-1.2417,-1.2327,-1.2325,-1.2324,-1.2323,0,0,-1.2872,-1.2794,-1.2797,-1.2774,-1.2719,-1.2705,-1.2698,-1.2664,-1.2655,-1.2621,-1.2613,-1.2582,-1.2551,-1.2529,-1.249,-1.2491,-1.2534,-1.2458,-1.2456,-1.2474,-1.2553,-1.2578,-1.2586,-1.2507,-1.2508,-1.2509,-1.2557,0,-1.2922,-1.2905,-1.2855,-1.2853,-1.2837,-1.2777,-1.2771,-1.2736,-1.2701,-1.2683,-1.2645,-1.2624,-1.2585,-1.2571,-1.257,-1.2529,-1.2549,-1.2525,-1.2499,-1.2499,-1.2512,-1.2594,-1.262,-1.2667,-1.2562,-1.2563,-1.2563,0,-1.2978,-1.2949,-1.2946,-1.2892,-1.2884,-1.2879,-1.2844,-1.2827,-1.2787,-1.2762,-1.2737,-1.2694,-1.2683,-1.2646,-1.2629,-1.2614,-1.26,-1.2579,-1.2579,-1.2575,-1.2535,-1.2592,-1.2681,-1.2688,-1.2572,-1.2571,-1.257,0,-1.3058,-1.3018,-1.3011,-1.2994,-1.293,-1.2928,-1.2902,-1.2859,-1.2843,-1.2813,-1.2801,-1.277,-1.2753,-1.273,-1.268,-1.2657,-1.2669,-1.2627,-1.2648,-1.2649,-1.2653,-1.2653,-1.2741,-1.2644,-1.2644,-1.2644,-1.2644,0,-1.3119,-1.312,-1.3046,-1.3042,-1.3041,-1.2983,-1.2983,-1.2951,-1.2914,-1.2903,-1.2848,-1.2839,-1.2773,-1.2755,-1.2716,-1.2709,-1.2701,-1.268,-1.267,-1.2685,-1.2688,-1.2676,-1.2671,-1.2646,-1.2645,-1.2645,-1.2645,0,-1.3208,-1.3159,-1.3147,-1.3089,-1.3074,-1.3076,-1.3025,-1.3018,-1.2981,-1.2967,-1.296,-1.2902,-1.2878,-1.2826,-1.2789,-1.2762,-1.2764,-1.2745,-1.2779,-1.2772,-1.2795,-1.2794,-1.2879,-1.2887,-1.2785,-1.2786,-1.2787,0,-1.3251,-1.325,-1.3191,-1.318,-1.3156,-1.3138,-1.3121,-1.3065,-1.3049,-1.3003,-1.3003,-1.2975,-1.295,-1.2916,-1.287,-1.2841,-1.2821,-1.2852,-1.2816,-1.2832,-1.2821,-1.2822,-1.2822,-1.2861,-1.2862,-1.2863,-1.2864,0,-1.3332,-1.3308,-1.3285,-1.3255,-1.3237,-1.321,-1.318,-1.3174,-1.311,-1.3095,-1.3071,-1.3052,-1.3014,-1.2988,-1.2952,-1.2924,-1.2884,-1.2876,-1.2879,-1.2895,-1.2914,-1.2904,-1.2801,-1.2874,-1.2873,-1.2872,-1.2872,-1.2871,-1.3399,-1.3395,-1.3354,-1.3331,-1.3303,-1.3277,-1.3268,-1.323,-1.3209,-1.3174,-1.3142,-1.3122,-1.3081,-1.3029,-1.3004,-1.2987,-1.2966,-1.2971,-1.2972,-1.2974,-1.2981,-1.2917,-1.298,-1.298,-1.2979,-1.2979,-1.2979,0,-1.3477,-1.3448,-1.3428,-1.3388,-1.337,-1.3335,-1.33,-1.3287,-1.327,-1.3236,-1.3213,-1.3186,-1.316,-1.3112,-1.3082,-1.3078,-1.3058,-1.3072,-1.3071,-1.3066,-1.3001,-1.3001,-1.3088,-1.3088,-1.3088,-1.3088,-1.3088,-1.3088,-1.3516,-1.3509,-1.348,-1.3458,-1.3428,-1.3408,-1.3391,-1.3367,-1.3339,-1.3312,-1.329,-1.3259,-1.322,-1.3187,-1.3162,-1.3148,-1.314,-1.3159,-1.314,-1.308,-1.307,-1.306,-1.306,-1.3158,-1.3158,-1.3206,-1.3207,-1.3207]},{"header":{"parameterUnit":"m.s-1","parameterCategory":1,"la1":30.2991,"la2":30.254,"lo1":-89.0895,"lo2":-89.0444,"dy":0.0017,"dx":0.0017,"nx":28,"ny":28,"refTime":"2024-03-02T09:00:00:Z","depth":0,"parameterNumber":3,"parameterNumberName":"V-component_of_WINDS"},"data":[0,0,0,0,0,0,0,0,0,0,0,0,0,0,0,0,0,0,0,0,0,0,0,0,0,0,0,0,0,0,0,0,0,0,0,0,0,0,0,0,0,0,0,0,0,0,0,0,0,0,0,0,0,0,0,0,0,0,-0.9447,-0.9447,0,-0.9469,-0.9469,-0.947,-0.9452,-0.9451,-0.945,-0.9449,-0.9473,-0.9474,-0.9475,0,0,0,0,0,0,0,0,0,0,0,0,0,-0.9387,-0.9388,-0.9447,-0.9447,-0.9447,-0.9469,-0.9469,-0.947,-0.9452,-0.9451,-0.945,-0.9449,-0.9472,-0.9474,-0.9475,0,0,0,0,0,0,0,0,0,0,0,0,0,-0.9412,-0.9389,-0.9447,-0.9441,-0.944,-0.9469,-0.9469,-0.947,-0.9452,-0.9451,-0.945,-0.9448,-0.9472,-0.9474,-0.9476,-0.9511,0,0,-0.9482,-0.9483,0,0,0,0,0,0,0,0,-0.941,-0.9414,-0.9441,-0.9441,-0.9441,-0.9456,-0.9457,-0.9484,-0.9452,-0.9448,-0.9449,-0.9448,-0.9468,-0.947,-0.9477,-0.9512,-0.9513,-0.9482,-0.9483,-0.9484,-0.9484,0,0,0,0,0,0,0,-0.9409,-0.9413,-0.9456,-0.9442,-0.9442,-0.9437,-0.9439,-0.9462,-0.9464,-0.9448,-0.9447,-0.9449,-0.9468,-0.9475,-0.9478,-0.9513,-0.9482,-0.9484,-0.9485,-0.9486,-0.9577,-0.9579,0,0,0,0,0,0,-0.9408,-0.9412,-0.9455,-0.9456,-0.9422,-0.9439,-0.9441,-0.9453,-0.9464,-0.9464,-0.945,-0.9449,-0.9472,-0.9475,-0.9478,-0.952,-0.9484,-0.9486,-0.9487,-0.9576,-0.9578,-0.9579,0,0,0,0,0,0,-0.9406,-0.9412,-0.9454,-0.9434,-0.9439,-0.9441,-0.9454,-0.9454,-0.9461,-0.9466,-0.9466,-0.9458,-0.9472,-0.9475,-0.9503,-0.952,-0.9487,-0.9489,-0.9575,-0.9577,-0.9578,-0.9604,0,0,0,0,0,0,-0.9405,-0.9411,-0.9425,-0.9434,-0.944,-0.9478,-0.9455,-0.9455,-0.9465,-0.9462,-0.9473,-0.9473,-0.9471,-0.95,-0.9505,-0.9523,-0.949,-0.9573,-0.9576,-0.9578,-0.9601,-0.9606,-0.961,0,0,0,0,0,-0.9403,-0.9432,-0.9426,-0.9431,-0.9457,-0.9479,-0.9483,-0.9479,-0.9466,-0.948,-0.9482,-0.9473,-0.9518,-0.9503,-0.9508,-0.9527,-0.9572,-0.9575,-0.9578,-0.9599,-0.9605,-0.961,0,0,0,0,0,0,-0.9425,-0.9433,-0.9427,-0.9459,-0.9469,-0.9476,-0.9494,-0.9486,-0.95,-0.9497,-0.9492,-0.9495,-0.9523,-0.9528,-0.9511,-0.9561,-0.9543,-0.9547,-0.9557,-0.9563,-0.9567,-0.9566,-0.9492,0,0,0,0,0,-0.9434,-0.9452,-0.9457,-0.9485,-0.949,-0.9491,-0.9501,-0.9497,-0.9507,-0.9511,-0.9516,-0.9526,-0.9542,-0.9553,-0.9568,-0.9602,-0.9603,-0.9617,-0.9622,-0.9625,-0.9629,-0.9646,-0.9652,-0.9588,-0.9588,-0.9588,0,0,-0.9452,-0.9458,-0.947,-0.949,-0.9497,-0.9515,-0.9495,-0.9515,-0.9528,-0.9514,-0.954,-0.9544,-0.9554,-0.9585,-0.9599,-0.9589,-0.9647,-0.9629,-0.9632,-0.9633,-0.9649,-0.9656,-0.9661,-0.959,-0.959,-0.9589,0,0,-0.9495,-0.9501,-0.9525,-0.9532,-0.9543,-0.9543,-0.9549,-0.9557,-0.9559,-0.9585,-0.9575,-0.959,-0.9618,-0.9626,-0.9633,-0.9677,-0.9669,-0.9682,-0.9706,-0.9723,-0.9728,-0.9732,-0.9747,-0.9753,-0.9686,-0.9686,-0.9686,0,-0.9516,-0.9543,-0.9539,-0.9559,-0.9568,-0.9556,-0.9579,-0.9587,-0.9602,-0.9608,-0.9597,-0.9632,-0.9638,-0.967,-0.968,-0.9687,-0.9693,-0.9681,-0.9728,-0.9732,-0.9736,-0.975,-0.9756,-0.9687,-0.9687,-0.9687,-0.9687,0,-0.9568,-0.9587,-0.9605,-0.9619,-0.963,-0.9652,-0.9651,-0.9662,-0.9657,-0.9658,-0.9684,-0.9691,-0.9707,-0.9714,-0.971,-0.9745,-0.9739,-0.9728,-0.9709,-0.9744,-0.9757,-0.9762,-0.969,-0.9689,-0.9689,-0.9688,0,0,-0.9626,-0.9637,-0.9644,-0.965,-0.966,-0.9674,-0.9695,-0.971,-0.972,-0.9731,-0.9748,-0.9771,-0.9761,-0.9769,-0.9766,-0.9781,-0.9814,-0.9768,-0.9768,-0.9776,-0.9852,-0.986,-0.9866,-0.9808,-0.9809,-0.981,-0.9851,0,-0.9669,-0.9706,-0.9702,-0.9736,-0.9753,-0.9741,-0.9759,-0.9767,-0.9769,-0.9783,-0.9784,-0.9801,-0.9786,-0.9791,-0.9805,-0.9807,-0.9829,-0.9804,-0.9824,-0.9825,-0.9822,-0.9873,-0.9882,-0.992,-0.9856,-0.9857,-0.9858,0,-0.9723,-0.9735,-0.9772,-0.9778,-0.9785,-0.9802,-0.9815,-0.9828,-0.9837,-0.9837,-0.9846,-0.9839,-0.986,-0.9841,-0.9869,-0.9852,-0.9859,-0.9862,-0.9863,-0.9865,-0.9843,-0.9876,-0.9932,-0.9938,-0.9866,-0.9865,-0.9865,0,-0.9761,-0.9786,-0.9811,-0.9817,-0.9825,-0.9837,-0.9841,-0.9848,-0.9857,-0.9869,-0.9874,-0.9888,-0.9895,-0.9906,-0.9903,-0.989,-0.9932,-0.9912,-0.9932,-0.9932,-0.9941,-0.994,-0.9999,-0.9947,-0.9947,-0.9946,-0.9946,0,-0.9809,-0.9832,-0.9828,-0.9843,-0.9868,-0.9863,-0.9887,-0.989,-0.9896,-0.9911,-0.9902,-0.9916,-0.9912,-0.9926,-0.9924,-0.9947,-0.9951,-0.9951,-0.995,-0.9951,-0.9951,-0.9956,-0.9953,-0.9948,-0.9948,-0.9947,-0.9947,0,-0.9856,-0.9854,-0.988,-0.9886,-0.9888,-0.9906,-0.991,-0.9924,-0.9924,-0.9943,-0.9948,-0.9948,-0.9964,-0.9962,-0.998,-0.9978,-1.0007,-1.0003,-1.0004,-1.0003,-1.0022,-1.002,-1.0086,-1.0094,-1.0036,-1.0037,-1.0037,0,-0.9886,-0.9903,-0.991,-0.9919,-0.9924,-0.9939,-0.9948,-0.9944,-0.9953,-0.9963,-0.9976,-0.9991,-1.0003,-1.0029,-1.003,-1.0043,-1.004,-1.0062,-1.0042,-1.0042,-1.0039,-1.0038,-1.0039,-1.0066,-1.0066,-1.0067,-1.0067,0,-0.994,-0.9938,-0.9951,-0.9964,-0.9975,-0.9984,-0.9993,-1.0001,-0.9998,-1.0009,-1.0025,-1.0034,-1.0051,-1.0066,-1.0078,-1.0082,-1.0074,-1.0073,-1.0078,-1.008,-1.008,-1.008,-1.0014,-1.0072,-1.0072,-1.0071,-1.0071,-1.0071,-0.9979,-0.9993,-1.0,-1.0015,-1.0021,-1.0029,-1.0042,-1.0043,-1.0056,-1.007,-1.0067,-1.0084,-1.0091,-1.0107,-1.0112,-1.0126,-1.0118,-1.0125,-1.0127,-1.0129,-1.0131,-1.0078,-1.0128,-1.0128,-1.0128,-1.0128,-1.0128,0,-1.0032,-1.0035,-1.0049,-1.0061,-1.0072,-1.0063,-1.0072,-1.0082,-1.0098,-1.0105,-1.0117,-1.0134,-1.0148,-1.0151,-1.0164,-1.0174,-1.017,-1.0178,-1.0177,-1.0177,-1.0138,-1.0132,-1.018,-1.018,-1.018,-1.018,-1.018,-1.018,-1.0061,-1.0084,-1.0083,-1.0108,-1.0112,-1.0129,-1.0134,-1.0142,-1.0147,-1.0167,-1.0179,-1.018,-1.0185,-1.0198,-1.021,-1.021,-1.0216,-1.0224,-1.0223,-1.0186,-1.018,-1.0175,-1.017,-1.0225,-1.0225,-1.0261,-1.0262,-1.0262]}]]